1358294428143,0.974032
1358294488143,0.973541
1358294548143,0.970739
1358294608143,0.971144
1358294668143,0.967826
1358294728143,0.973622
1358294788143,0.965652
1358294848143,0.972697
1358294908143,0.974095
1358294968143,0.969993
1358295028143,0.974983
1358295088143,0.967489
1358295148143,0.971015
1358295208143,0.971752
1358295268143,0.975994
1358295328143,0.976371
1358295388143,0.969714
1358295448143,0.971548
1358295508143,0.968428
1358295568143,0.976942
1358295628143,0.970502
1358295688143,0.970813
1358295748143,0.967444
1358295808143,0.964048
1358295868143,0.970056
1358295928143,0.969806
1358295988143,0.972292
1358296048143,0.966479
1358296108143,0.972631
1358296168143,0.982521
1358296228143,0.970119
1358296288143,0.979189
1358296348143,0.975821
1358296408143,0.972116
1358296468143,0.970237
1358296528143,0.973487
1358296588143,0.972613
1358296648143,0.971131
1358296708143,0.974371
1358296768143,0.978243
1358296828143,0.967462
1358296888143,0.975083
1358296948143,0.974976
1358297008143,0.961198
1358297068143,0.967804
1358297128143,0.966443
1358297188143,0.971219
1358297248143,0.973468
1358297308143,0.969973
1358297368143,0.972788
1358297428143,0.978319
1358297488143,0.980248
1358297548143,0.965722
1358297608143,0.973159
1358297668143,0.978621
1358297728143,0.977131
1358297788143,0.975529
1358297848143,0.970887
1358297908143,0.977293
1358297968143,0.974551
1358298028153,0.972989
1358298088153,0.981858
1358298148153,0.970335
1358298208153,0.971477
1358298268153,0.973999
1358298328153,0.969112
1358298388153,0.971795
1358298448153,0.977320
1358298508153,0.978040
1358298568153,0.966526
1358298628153,0.974218
1358298688153,0.968990
1358298748153,0.973377
1358298808153,0.973225
1358298868153,0.973707
1358298928153,0.980799
1358298988153,0.970403
1358299048153,0.971603
1358299108153,0.976137
1358299168153,0.972554
1358299228153,0.971425
1358299288153,0.974452
1358299348153,0.980149
1358299408153,0.979863
1358299468153,0.967928
1358299528153,0.978828
1358299588153,0.977581
1358299648153,0.969666
1358299708153,0.977466
1358299768153,0.983145
1358299828153,0.976586
1358299888153,0.983528
1358299948153,0.981500
1358300008153,0.975058
1358300068153,0.978212
1358300128153,0.981186
1358300188153,0.980675
1358300248153,0.974782
1358300308153,0.973140
1358300368153,0.972562
1358300428153,0.979822
1358300488153,0.975413
1358300548153,0.978740
1358300608153,0.972386
1358300668153,0.973514
1358300728153,0.964556
1358300788153,0.971822
1358300848153,0.966633
1358300908153,0.970518
1358300968153,0.969711
1358301028153,0.973725
1358301088153,0.975243
1358301148153,0.976485
1358301208153,0.976124
1358301268153,0.972889
1358301328153,0.971101
1358301388153,0.980898
1358301448153,0.974645
1358301508153,0.976990
1358301568153,0.967389
1358301628163,0.977800
1358301688163,0.972645
1358301748163,0.981501
1358301808163,0.975845
1358301868163,0.973523
1358301928163,0.988692
1358301988163,0.974725
1358302048163,0.973066
1358302108163,0.982952
1358302168163,0.978929
1358302228163,0.971144
1358302288163,0.979278
1358302348163,0.976868
1358302408163,0.981011
1358302468163,0.982580
1358302528163,0.977343
1358302588163,0.988406
1358302648163,0.985852
1358302708163,0.999717
1358302768163,0.994443
1358302828163,1.00403
1358302888163,0.989091
1358302948163,0.981751
1358303008163,0.989096
1358303068163,0.980486
1358303128163,0.980802
1358303188163,0.978478
1358303248163,0.986314
1358303308163,0.974944
1358303368163,0.980582
1358303428163,0.979263
1358303488163,0.977269
1358303548163,0.980040
1358303608163,0.976341
1358303668163,0.978598
1358303728163,0.992136
1358303788163,0.985727
1358303848163,0.979533
1358303908163,0.986928
1358303968163,0.980116
1358304028163,0.977358
1358304088163,0.975402
1358304148163,0.975255
1358304208163,0.980184
1358304268163,0.979293
1358304328163,0.975832
1358304388163,0.978882
1358304448163,0.981526
1358304508163,0.978465
1358304568163,0.981334
1358304628163,0.978702
1358304688163,0.978260
1358304748163,0.978745
1358304808163,0.982923
1358304868163,0.976512
1358304928163,0.984131
1358304988163,0.977691
1358305048163,0.977870
1358305108163,0.971688
1358305168163,0.980374
1358305228174,0.977432
1358305288174,0.983914
1358305348174,0.982142
1358305408174,0.966356
1358305468174,0.981334
1358305528174,0.975792
1358305588174,0.979425
1358305648174,0.976058
1358305708174,0.973969
1358305768174,0.977790
1358305828174,0.973647
1358305888174,0.973115
1358305948174,0.980116
1358306008174,0.977330
1358306068174,0.979209
1358306128174,0.979707
1358306188174,0.978418
1358306248174,0.972846
1358306308174,0.977411
1358306368174,0.972302
1358306428174,0.973494
1358306488174,0.973170
1358306548174,0.974712
1358306608174,0.974270
1358306668174,0.979865
1358306728174,0.969598
1358306788174,0.974167
1358306848174,0.972546
1358306908174,0.972106
1358306968174,0.977681
1358307028174,0.983685
1358307088174,0.982878
1358307148174,0.975851
1358307208174,0.980042
1358307268174,0.992232
1358307328174,0.977191
1358307388174,0.974353
1358307448174,0.986697
1358307508174,0.978673
1358307568174,0.973211
1358307628174,0.980839
1358307688174,0.972383
1358307748174,0.968706
1358307808174,0.966369
1358307868174,0.976444
1358307928174,0.965296
1358307988174,0.968600
1358308048174,0.974752
1358308108174,0.976300
1358308168174,0.975223
1358308228174,0.978399
1358308288174,0.972197
1358308348174,0.976310
1358308408174,0.981464
1358308468174,0.972863
1358308528174,0.977079
1358308588174,0.985754
1358308648174,0.969187
1358308708174,0.975690
1358308768174,0.966181
1358308828184,0.972474
1358308888184,0.975615
1358308948184,0.974607
1358309008184,0.972650
1358309068184,0.975289
1358309128184,0.976332
1358309188184,0.966625
1358309248184,0.972739
1358309308184,0.975644
1358309368184,0.971744
1358309428184,0.970170
1358309488184,0.971331
1358309548184,0.975110
1358309608184,0.965601
1358309668184,0.969447
1358309728184,0.972116
1358309788184,0.965517
1358309848184,0.963418
1358309908184,0.976635
1358309968184,0.981558
1358310028184,0.976138
1358310088184,0.974793
1358310148184,0.964046
1358310208184,0.974509
1358310268184,0.971224
1358310328184,0.977611
1358310388184,0.974168
1358310448184,0.976466
1358310508184,0.973283
1358310568184,0.985698
1358310628184,0.976295
1358310688184,0.976959
1358310748184,0.978024
1358310808184,0.975023
1358310868184,0.967597
1358310928184,0.976690
1358310988184,0.971870
1358311048184,0.982100
1358311108184,0.980892
1358311168184,0.975915
1358311228184,0.979016
1358311288184,0.978464
1358311348184,0.984658
1358311408184,0.990084
1358311468184,0.983116
1358311528184,0.985606
1358311588184,0.980648
1358311648184,0.979847
1358311708184,0.981040
1358311768184,0.983140
1358311828184,0.982615
1358311888184,0.983128
1358311948184,0.981911
1358312008184,0.977248
1358312068184,0.982593
1358312128184,0.976914
1358312188184,0.973769
1358312248184,0.981183
1358312308184,0.982291
1358312368184,0.979448
1358312428195,0.974868
1358312488195,0.982706
1358312548195,0.971204
1358312608195,0.974379
1358312668195,0.969039
1358312728195,0.971678
1358312788195,0.973134
1358312848195,0.976578
1358312908195,0.975857
1358312968195,0.977717
1358313028195,0.970880
1358313088195,0.981814
1358313148195,0.982899
1358313208195,0.978052
1358313268195,0.974155
1358313328195,0.975032
1358313388195,0.983101
1358313448195,0.979961
1358313508195,0.970916
1358313568195,0.980402
1358313628195,0.976664
1358313688195,0.973435
1358313748195,0.982506
1358313808195,0.984295
1358313868195,0.978169
1358313928195,0.974150
1358313988195,0.972559
1358314048195,0.982020
1358314108195,0.975868
1358314168195,0.975786
1358314228195,0.973088
1358314288195,0.977682
1358314348195,0.977945
1358314408195,0.984846
1358314468195,0.978237
1358314528195,0.979523
1358314588195,0.975580
1358314648195,0.974568
1358314708195,0.978313
1358314768195,0.967412
1358314828195,0.980178
1358314888195,0.973680
1358314948195,0.974539
1358315008195,0.975622
1358315068195,0.974425
1358315128195,0.974212
1358315188195,0.977702
1358315248195,0.976658
1358315308195,0.975798
1358315368195,0.977781
1358315428195,0.973381
1358315488195,0.971978
1358315548195,0.970039
1358315608195,0.973754
1358315668195,0.972581
1358315728195,0.972407
1358315788195,0.972126
1358315848195,0.974613
1358315908195,0.978104
1358315968195,0.977046
1358316028205,0.973658
1358316088205,0.974816
1358316148205,0.970106
1358316208205,0.979387
1358316268205,0.967649
1358316328205,0.978983
1358316388205,0.975066
1358316448205,0.975742
1358316508205,0.978819
1358316568205,0.975451
1358316628205,0.990149
1358316688205,0.978394
1358316748205,0.972460
1358316808205,0.977752
1358316868205,0.980279
1358316928205,0.977713
1358316988205,0.977142
1358317048205,0.979078
1358317108205,0.982860
1358317168205,0.978868
1358317228205,0.969209
1358317288205,0.983226
1358317348205,0.969553
1358317408205,0.974987
1358317468205,0.973564
1358317528205,0.975156
1358317588205,0.971925
1358317648205,0.967325
1358317708205,0.975209
1358317768205,0.969281
1358317828205,0.969465
1358317888205,0.976280
1358317948205,0.968333
1358318008205,0.968067
1358318068205,0.971446
1358318128205,0.983279
1358318188205,0.970428
1358318248205,0.967232
1358318308205,0.967407
1358318368205,0.964252
1358318428205,0.978664
1358318488205,0.964681
1358318548205,0.965168
1358318608205,0.974877
1358318668205,0.974971
1358318728205,0.969042
1358318788205,0.974631
1358318848205,0.976171
1358318908205,0.965926
1358318968205,0.971695
1358319028205,0.968086
1358319088205,0.973377
1358319148205,0.974034
1358319208205,0.969410
1358319268205,0.969847
1358319328205,0.971946
1358319388205,0.981077
1358319448205,0.967061
1358319508205,0.970106
1358319568205,0.969923
1358319628216,0.971188
1358319688216,0.970990
1358319748216,0.972385
1358319808216,0.971542
1358319868216,0.977321
1358319928216,0.973966
1358319988216,0.974425
1358320048216,0.970584
1358320108216,0.971581
1358320168216,0.968274
1358320228216,0.970766
1358320288216,0.975183
1358320348216,0.976711
1358320408216,0.969790
1358320468216,0.974637
1358320528216,0.973259
1358320588216,0.977493
1358320648216,0.972152
1358320708216,0.971770
1358320768216,0.961779
1358320828216,0.974997
1358320888216,0.972840
1358320948216,0.968904
1358321008216,0.971679
1358321068216,0.963158
1358321128216,0.981541
1358321188216,0.973563
1358321248216,0.973976
1358321308216,0.968340
1358321368216,0.965785
1358321428216,0.976492
1358321488216,0.971593
1358321548216,0.975864
1358321608216,0.976641
1358321668216,0.979150
1358321728216,0.967669
1358321788216,0.972294
1358321848216,0.975754
1358321908216,0.964638
1358321968216,0.968746
1358322028216,0.973993
1358322088216,0.971466
1358322148216,0.969845
1358322208216,0.965575
1358322268216,0.963069
1358322328216,0.975957
1358322388216,0.963801
1358322448216,0.972700
1358322508216,0.959548
1358322568216,0.974485
1358322628216,0.967132
1358322688216,0.969008
1358322748216,0.967745
1358322808216,0.971081
1358322868216,0.969026
1358322928216,0.968366
1358322988216,0.959389
1358323048216,0.972751
1358323108216,0.963480
1358323168216,0.963964
1358323228228,0.964794
1358323288228,0.975939
1358323348228,0.980870
1358323408228,0.978673
1358323468228,0.979624
1358323528228,0.995922
1358323588228,0.985566
1358323648228,0.996158
1358323708228,1.00120
1358323768228,1.00845
1358323828228,0.994150
1358323888228,0.994792
1358323948228,0.994202
1358324008228,0.998197
1358324068228,0.991486
1358324128228,0.988109
1358324188228,0.988415
1358324248228,0.983621
1358324308228,0.987011
1358324368228,0.973279
1358324428228,0.980363
1358324488228,0.979525
1358324548228,0.969743
1358324608228,0.974941
1358324668228,0.974245
1358324728228,0.977817
1358324788228,0.970669
1358324848228,0.963648
1358324908228,0.974398
1358324968228,0.973752
1358325028228,0.968583
1358325088228,0.975603
1358325148228,0.970442
1358325208228,0.976024
1358325268228,0.982669
1358325328228,0.970878
1358325388228,0.974211
1358325448228,0.970791
1358325508228,0.971018
1358325568228,0.974528
1358325628228,0.976252
1358325688228,0.968962
1358325748228,0.972878
1358325808228,0.978797
1358325868228,0.972781
1358325928228,0.980494
1358325988228,0.975437
1358326048228,0.978958
1358326108228,0.972878
1358326168228,0.979222
1358326228228,0.972673
1358326288228,0.976589
1358326348228,0.984827
1358326408228,0.973494
1358326468228,0.976389
1358326528228,0.983543
1358326588228,0.973220
1358326648228,0.982929
1358326708228,0.989375
1358326768228,0.993496
1358326828239,1.00184
1358326888239,0.998843
1358326948239,0.998208
1358327008239,0.992022
1358327068239,0.987696
1358327128239,0.986089
1358327188239,0.982873
1358327248239,0.987751
1358327308239,0.980593
1358327368239,0.981332
1358327428239,0.980849
1358327488239,0.983327
1358327548239,0.979332
1358327608239,0.986304
1358327668239,0.985607
1358327728239,0.978240
1358327788239,0.983427
1358327848239,0.988011
1358327908239,0.979716
1358327968239,0.978941
1358328028239,0.990462
1358328088239,0.985697
1358328148239,0.980139
1358328208239,0.989995
1358328268239,0.994881
1358328328239,0.985616
1358328388239,0.989840
1358328448239,0.983534
1358328508239,0.989410
1358328568239,0.993273
1358328628239,0.981263
1358328688239,0.990108
1358328748239,0.981925
1358328808239,0.984414
1358328868239,0.983904
1358328928239,0.980815
1358328988239,0.983684
1358329048239,0.991997
1358329108239,0.982293
1358329168239,0.971616
1358329228239,0.987196
1358329288239,0.987129
1358329348239,0.985157
1358329408239,0.979357
1358329468239,0.982764
1358329528239,0.979407
1358329588239,0.980114
1358329648239,0.978188
1358329708239,0.981362
1358329768239,0.980168
1358329828239,0.984915
1358329888239,0.989931
1358329948239,0.985917
1358330008239,0.981289
1358330068239,0.985839
1358330128239,0.992019
1358330188239,0.985936
1358330248239,0.984231
1358330308239,0.983316
1358330368239,0.993653
1358330428250,0.985375
1358330488250,0.996267
1358330548250,0.997104
1358330608250,0.992379
1358330668250,0.989675
1358330728250,0.992629
1358330788250,0.988393
1358330848250,0.989991
1358330908250,0.992151
1358330968250,0.992135
1358331028250,0.992621
1358331088250,0.994014
1358331148250,0.993444
1358331208250,1.00012
1358331268250,0.987831
1358331328250,0.986708
1358331388250,0.990718
1358331448250,0.992167
1358331508250,0.990666
1358331568250,0.993522
1358331628250,0.997088
1358331688250,0.993050
1358331748250,0.986142
1358331808250,0.997168
1358331868250,0.985717
1358331928250,0.990265
1358331988250,0.983206
1358332048250,0.989612
1358332108250,0.988148
1358332168250,0.985442
1358332228250,0.984256
1358332288250,0.982352
1358332348250,0.988349
1358332408250,0.991854
1358332468250,0.996583
1358332528250,0.994537
1358332588250,0.996606
1358332648250,1.00020
1358332708250,0.995320
1358332768250,0.993938
1358332828250,0.989523
1358332888250,0.989797
1358332948250,0.988485
1358333008250,0.979510
1358333068250,0.987920
1358333128250,0.990201
1358333188250,0.995346
1358333248250,0.984365
1358333308250,0.994383
1358333368250,0.984431
1358333428250,0.993079
1358333488250,0.993591
1358333548250,0.995345
1358333608250,0.995512
1358333668250,0.993115
1358333728250,0.991004
1358333788250,0.987807
1358333848250,0.993838
1358333908250,0.998610
1358333968250,0.998779
1358334028262,0.998857
1358334088262,1.00912
1358334148262,0.997063
1358334208262,1.00980
1358334268262,1.00581
1358334328262,1.00520
1358334388262,1.01700
1358334448262,1.00383
1358334508262,1.01535
1358334568262,1.01223
1358334628262,1.00798
1358334688262,1.01121
1358334748262,1.01719
1358334808262,1.00797
1358334868262,1.01315
1358334928262,1.01479
1358334988262,1.01690
1358335048262,1.01211
1358335108262,1.01929
1358335168262,1.01385
1358335228262,1.02048
1358335288262,1.01337
1358335348262,1.01502
1358335408262,1.00892
1358335468262,1.00439
1358335528262,1.01811
1358335588262,1.01235
1358335648262,1.01487
1358335708262,1.01300
1358335768262,1.01821
1358335828262,1.00983
1358335888262,1.01541
1358335948262,1.01362
1358336008262,1.00119
1358336068262,1.00266
1358336128262,1.01100
1358336188262,0.998151
1358336248262,1.00473
1358336308262,1.00034
1358336368262,1.00806
1358336428262,0.995948
1358336488262,0.996837
1358336548262,1.00702
1358336608262,0.997448
1358336668262,1.00007
1358336728262,0.995588
1358336788262,0.994666
1358336848262,0.988070
1358336908262,0.998091
1358336968262,0.991411
1358337028262,1.00098
1358337088262,0.991319
1358337148262,0.994850
1358337208262,0.989789
1358337268262,0.985627
1358337328262,0.985735
1358337388262,0.985570
1358337448262,0.991179
1358337508262,0.980674
1358337568262,0.986712
1358337628273,0.982961
1358337688273,0.988662
1358337748273,0.982722
1358337808273,0.987396
1358337868273,0.981611
1358337928273,0.984814
1358337988273,0.976347
1358338048273,0.977547
1358338108273,0.974794
1358338168273,0.981345
1358338228273,0.983439
1358338288273,0.977647
1358338348273,0.975842
1358338408273,0.978961
1358338468273,0.975989
1358338528273,0.978100
1358338588273,0.975202
1358338648273,0.982414
1358338708273,0.978315
1358338768273,0.970616
1358338828273,0.977111
1358338888273,0.977118
1358338948273,0.969979
1358339008273,0.974925
1358339068273,0.982974
1358339128273,0.986353
1358339188273,0.971359
1358339248273,0.972095
1358339308273,0.974447
1358339368273,0.985863
1358339428273,0.984949
1358339488273,0.989097
1358339548273,0.990868
1358339608273,0.991678
1358339668273,0.987371
1358339728273,0.990086
1358339788273,0.997229
1358339848273,0.990661
1358339908273,0.988533
1358339968273,0.988910
1358340028273,0.986289
1358340088273,0.990670
1358340148273,0.987720
1358340208273,0.980791
1358340268273,0.979027
1358340328273,0.990637
1358340388273,0.980820
1358340448273,0.991310
1358340508273,0.982738
1358340568273,0.991418
1358340628273,0.987392
1358340688273,0.991692
1358340748273,0.985569
1358340808273,0.994952
1358340868273,0.984595
1358340928273,0.993793
1358340988273,0.982055
1358341048273,0.979740
1358341108273,0.984550
1358341168273,0.988722
1358341228285,0.980876
1358341288285,0.993519
1358341348285,0.979598
1358341408285,0.984168
1358341468285,0.987818
1358341528285,0.979995
1358341588285,0.983098
1358341648285,0.988353
1358341708285,0.991911
1358341768285,0.987722
1358341828285,0.977834
1358341888285,0.989726
1358341948285,0.992971
1358342008285,0.994105
1358342068285,0.984560
1358342128285,0.989065
1358342188285,0.994221
1358342248285,0.993803
1358342308285,0.987504
1358342368285,0.997686
1358342428285,0.997176
1358342488285,0.994878
1358342548285,0.994386
1358342608285,0.991615
1358342668285,0.992599
1358342728285,0.999783
1358342788285,0.995464
1358342848285,0.993718
1358342908285,0.988832
1358342968285,0.996522
1358343028285,0.992220
1358343088285,0.995583
1358343148285,0.993078
1358343208285,0.997085
1358343268285,0.997595
1358343328285,1.00116
1358343388285,1.00232
1358343448285,0.996309
1358343508285,0.995476
1358343568285,0.995003
1358343628285,0.990440
1358343688285,0.991733
1358343748285,0.993796
1358343808285,0.995524
1358343868285,1.00234
1358343928285,0.994250
1358343988285,0.990297
1358344048285,0.998581
1358344108285,1.01039
1358344168285,0.993902
1358344228285,0.994111
1358344288285,0.980639
1358344348285,0.995224
1358344408285,0.998106
1358344468285,0.994622
1358344528285,0.996309
1358344588285,0.991882
1358344648285,0.998595
1358344708285,0.990452
1358344768285,1.00055
1358344828296,0.992308
1358344888296,0.988724
1358344948296,0.991219
1358345008296,0.985412
1358345068296,0.992543
1358345128296,0.977192
1358345188296,0.980108
1358345248296,0.981168
1358345308296,0.984698
1358345368296,0.987317
1358345428296,0.994546
1358345488296,0.987479
1358345548296,0.980504
1358345608296,0.982707
1358345668296,0.984446
1358345728296,0.979527
1358345788296,0.981371
1358345848296,0.976660
1358345908296,0.979907
1358345968296,0.981614
1358346028296,0.984847
1358346088296,0.976421
1358346148296,0.980384
1358346208296,0.982006
1358346268296,0.987158
1358346328296,0.981560
1358346388296,0.974370
1358346448296,0.978817
1358346508296,0.980543
1358346568296,0.977574
1358350768307,0.971419
1358350828307,0.969160
1358350888307,0.977103
1358350948307,0.969849
1358355148318,0.974434
1358355208318,0.970907
1358355268318,0.975164
1358355328318,0.969532
1358359468341,0.974410
1358359528341,0.977090
1358359588341,0.979527
1358359648341,0.980807
1358359708341,0.978692
1358363848352,1.06728
1358363908352,1.07241
1358363968352,1.08041
1358364028352,1.07698
1358364088352,1.08491
1358364148352,1.08270
1358364208352,1.07384
1358364268352,1.08250
1358364328352,1.08537
1358364388352,1.09614
1358364448352,1.08475
1358364508352,1.09138
1358364568352,1.08429
1358364628352,1.10118
1358364688352,1.08734
1358364748352,1.08980
1358364808352,1.09233
1358364868352,1.09427
1358364928352,1.09314
1358364988352,1.08947
1358365048352,1.08626
1358365108352,1.09174
1358365168352,1.08873
1358365228352,1.08718
1358365288352,1.09275
1358365348352,1.08230
1358365408352,1.08665
1358365468352,1.09433
1358365528352,1.08914
1358365588352,1.08172
1358365648352,1.08162
1358365708352,1.08066
1358365768352,1.07665
1358365828352,1.07947
1358365888352,1.07125
1358365948352,1.06853
1358366008352,1.07812
1358366068352,1.06533
1358366128352,1.07071
1358366188352,1.07070
1358366248352,1.07147
1358366308352,1.06879
1358366368352,1.06951
1358366428363,1.06192
1358366488363,1.05600
1358366548363,1.05376
1358366608363,1.06013
1358366668363,1.05388
1358366728363,1.04730
1358366788363,1.05284
1358366848363,1.04692
1358366908363,1.04447
1358366968363,1.04884
1358367028363,1.04497
1358367088363,1.04216
1358367148363,1.03804
1358367208363,1.03351
1358367268363,1.03694
1358367328363,1.03133
1358367388363,1.03060
1358367448363,1.02833
1358367508363,1.04059
1358367568363,1.03103
1358367628363,1.03599
1358367688363,1.03607
1358367748363,1.02657
1358367808363,1.02294
1358367868363,1.02336
1358367928363,1.02354
1358367988363,1.02789
1358368048363,1.02449
1358368108363,1.01417
1358368168363,1.02434
1358368228363,1.01538
1358368288363,1.02087
1358368348363,1.02506
1358368408363,1.02299
1358368468363,1.01114
1358368528363,1.01822
1358368588363,1.00830
1358368648363,1.00396
1358368708363,1.01114
1358368768363,1.01652
1358368828363,1.00898
1358368888363,1.00659
1358368948363,1.00930
1358369008363,1.00329
1358369068363,1.00260
1358369128363,1.00047
1358369188363,1.00197
1358369248363,1.00151
1358369308363,0.993966
1358369368363,0.995536
1358369428363,1.00878
1358369488363,0.994250
1358369548363,0.987914
1358369608363,1.00448
1358369668363,0.996176
1358369728363,0.992030
1358369788363,0.994186
1358369848363,0.994072
1358369908363,0.993957
1358369968363,0.992757
1358370028373,0.996494
1358370088373,0.982321
1358370148373,0.982843
1358370208373,0.979263
1358370268373,0.990615
1358370328373,0.986870
1358370388373,0.988209
1358370448373,0.981519
1358370508373,0.983918
1358370568373,0.982597
1358370628373,0.985498
1358370688373,0.983876
1358371228373,0.977797
1358371288373,0.979748
1358371348373,0.968112
1358371408373,0.969814
1358371468373,0.961888
1358371528373,0.970294
1358371588373,0.974451
1358371648373,0.969069
1358371708373,0.974272
1358371768373,0.967274
1358371828373,0.966003
1358371888373,0.966988
1358371948373,0.973538
1358372008373,0.968216
1358372068373,0.974821
1358372128373,0.966228
1358372188373,0.970368
1358372248373,0.973954
1358372308373,0.970894
1358372368373,0.967558
1358372428373,0.965071
1358372488373,0.978695
1358372548373,0.972692
1358372608373,0.971184
1358372668373,0.961761
1358372728373,0.969466
1358372788373,0.965879
1358372848373,0.970577
1358372908373,0.967686
1358372968373,0.965851
1358373028373,0.976387
1358373088373,0.962965
1358373148373,0.964498
1358373208373,0.972050
1358373268373,0.965504
1358373328373,0.964025
1358373388373,0.972373
1358373448373,0.972069
1358373508373,0.962364
1358373568373,0.971024
1358373628384,0.970073
1358373688384,0.966801
1358373748384,0.969636
1358373808384,0.971054
1358373868384,0.961058
1358373928384,0.968191
1358373988384,0.971853
1358374048384,0.967111
1358374108384,0.959509
1358374168384,0.966010
1358374228384,0.958290